GEFSMA_con_probscp_042.txt.gz
Probability
13 11 8 7 6 5 6 5 5 6 8 9 8 5 6 8 11 12 11 9 8 9 13 20 32 45 56 64 62 50 34 21 15 11 7 4 4 4 5 5 4 4 3
15 11 7 5 5 5 5 5 4 4 6 7 7 6 6 7 10 12 10 8 6 7 11 17 26 38 49 58 59 49 37 26 18 12 8 6 4 3 4 5 5 4 3
14 9 4 2 3 3 2 2 2 2 3 4 5 5 4 4 6 9 9 8 7 7 8 13 20 29 40 48 49 45 39 32 23 13 8 6 5 3 4 4 4 3 3
9 5 1 0 1 1 0 0 0 1 1 1 2 2 2 1 3 4 5 6 7 7 9 14 20 27 34 40 40 39 40 37 28 17 9 5 5 4 3 3 3 3 3
4 1 0 0 0 0 0 0 0 0 0 0 0 0 0 0 0 1 1 2 4 6 10 16 22 28 33 35 35 36 40 39 32 23 13 8 5 4 3 3 3 3 3
1 0 0 0 0 0 0 0 0 0 0 0 0 0 0 0 0 0 0 0 1 4 8 15 23 28 31 32 33 35 37 36 31 26 21 14 9 5 4 3 3 3 3
0 0 0 0 0 0 0 0 0 0 0 0 0 0 0 0 0 0 0 0 1 2 5 10 17 24 28 31 33 33 32 31 29 27 27 25 19 12 8 5 3 3 3
0 0 0 0 0 0 0 0 0 0 0 0 0 0 0 0 0 0 0 0 0 1 2 4 9 17 24 31 34 33 30 29 27 26 30 33 30 23 16 11 7 5 4
1 0 0 0 0 0 0 0 0 0 0 0 0 0 0 0 0 0 0 0 0 0 0 1 4 10 17 26 31 32 30 27 25 24 27 32 33 29 25 21 16 10 8
2 1 1 0 0 0 0 0 0 0 0 0 0 0 0 0 0 0 0 0 0 0 0 1 2 5 10 16 23 26 24 23 23 23 24 26 29 30 30 27 21 15 12
3 3 2 1 1 1 0 0 0 0 0 0 0 0 0 0 0 0 0 0 0 0 0 0 1 2 4 7 14 17 16 16 19 21 21 21 24 30 34 31 25 20 19
3 3 3 2 2 1 1 1 1 0 0 0 0 0 0 0 0 0 0 0 0 0 0 0 0 1 1 2 6 10 10 10 12 15 15 15 19 27 34 33 29 28 30
1 2 2 1 1 1 2 2 1 0 0 0 0 0 0 0 0 0 0 0 0 0 0 0 0 0 0 0 2 5 7 7 7 7 8 9 11 17 25 28 27 29 33
0 0 0 0 1 1 1 1 1 0 0 0 0 0 0 0 0 0 0 0 0 0 0 0 0 0 0 0 0 3 5 6 4 3 3 3 3 7 12 16 17 17 19
0 0 0 1 1 0 0 0 0 0 0 0 0 0 0 0 0 0 0 0 0 0 0 0 0 0 0 0 0 1 3 3 2 1 0 0 0 1 3 5 5 5 4
0 0 0 0 0 0 0 0 0 0 0 0 0 0 0 0 0 0 0 0 0 0 0 0 0 0 0 0 0 0 1 1 1 0 0 0 0 0 0 0 0 0 0
0 0 0 0 0 0 0 0 0 0 0 0 0 0 0 0 0 0 0 0 0 0 0 0 0 0 0 0 0 0 0 0 0 0 0 0 0 0 0 0 0 0 0
0 0 0 0 0 0 0 0 0 0 0 0 0 0 0 0 0 0 0 0 0 0 0 0 0 0 0 0 0 0 0 0 0 0 0 0 0 0 0 0 0 0 0
0 0 0 0 0 0 0 0 0 0 0 0 0 0 0 0 0 0 0 0 0 0 0 0 0 0 0 0 0 0 0 0 0 0 0 0 0 0 0 0 0 0 0
0 0 0 0 0 0 0 0 0 0 0 0 0 0 0 0 0 0 0 0 0 0 0 0 0 0 0 0 0 0 0 0 0 0 0 0 0 0 0 0 0 0 0
0 0 0 0 0 0 0 0 0 0 0 0 0 0 0 0 0 0 0 0 0 0 0 0 0 0 0 0 0 0 0 0 0 0 0 0 0 0 0 0 0 0 0
0 0 0 0 0 0 0 0 0 0 0 0 0 0 0 0 0 0 0 0 0 0 0 0 0 0 0 0 0 0 0 0 0 0 0 0 0 0 0 0 0 0 0
0 0 0 0 0 0 0 0 0 0 0 0 0 0 0 0 0 0 0 0 0 0 0 0 0 0 0 0 0 0 0 0 0 0 0 0 0 0 0 0 0 0 0
0 0 0 0 0 0 0 0 0 0 0 0 0 0 0 0 0 0 0 0 0 0 0 0 0 0 0 0 0 0 0 0 0 0 0 0 0 0 0 0 0 0 0
0 0 0 0 0 0 0 0 0 0 0 0 0 0 0 0 0 0 0 0 0 0 0 0 0 0 0 0 0 0 0 0 0 0 0 0 0 0 0 0 0 0 0
0 0 0 0 0 0 0 0 0 0 0 0 0 0 0 0 0 0 0 0 0 0 0 0 0 0 0 0 0 0 0 0 0 0 0 0 0 0 0 0 0 0 0

GEFSMA_con_probscp_048.txt.gz
Probability
27 21 14 11 10 8 5 2 2 2 1 1 1 1 1 1 0 0 0 0 0 2 5 5 3 1 2 5 9 12 14 14 13 11 7 4 2 1 0 0 0 0 0
27 22 14 9 7 6 4 3 2 2 2 2 2 2 2 1 0 0 0 0 1 3 4 4 3 2 2 3 5 8 10 14 15 13 9 7 4 2 1 0 0 0 0
23 18 10 5 3 2 3 3 2 1 1 1 1 1 2 1 0 0 0 1 1 2 3 3 3 3 2 1 2 4 6 9 12 14 13 11 8 6 3 1 1 0 0
15 10 5 1 0 0 1 1 1 0 0 0 0 0 0 0 0 0 0 0 0 1 2 2 3 3 1 0 2 5 7 7 8 13 17 15 12 8 5 4 2 1 0
7 5 2 1 0 0 0 0 0 0 0 0 0 0 0 0 0 0 0 0 0 0 1 1 1 1 1 1 4 8 11 11 9 10 15 17 15 10 6 5 3 2 1
3 3 2 1 0 0 0 0 0 0 0 0 0 0 0 0 0 0 0 0 0 0 0 0 0 0 0 2 5 9 14 16 13 11 13 18 18 12 8 5 3 2 1
3 3 2 1 0 0 0 0 0 0 0 0 0 0 0 0 0 0 0 0 0 0 0 0 0 0 0 1 2 7 14 20 20 18 19 22 22 17 10 6 4 2 1
3 2 1 0 0 0 0 0 0 0 0 0 0 0 0 0 0 0 0 0 0 0 0 0 0 0 0 0 0 3 10 18 24 26 26 25 24 21 16 10 6 3 1
2 1 0 0 0 0 0 0 1 0 0 0 0 0 0 0 0 0 0 0 0 0 0 0 0 0 0 0 0 1 5 11 18 25 27 26 23 21 20 17 11 7 5
1 0 0 0 0 0 0 0 0 0 0 0 0 0 0 0 0 0 0 0 0 0 0 0 0 0 0 0 0 0 2 4 10 18 25 28 26 22 22 21 20 17 14
0 0 0 0 0 0 0 0 0 0 0 0 0 0 0 0 0 0 0 0 0 0 0 0 0 0 0 0 0 0 0 1 5 12 20 26 29 29 27 26 27 29 29
0 0 0 0 0 0 0 0 0 0 0 0 0 0 0 0 0 0 0 0 0 0 0 0 0 0 0 0 0 0 0 0 2 7 12 18 25 30 32 31 32 36 40
0 0 0 0 0 0 0 0 0 0 0 0 0 0 0 0 0 0 0 0 0 0 0 0 0 0 0 0 0 0 0 0 0 2 5 9 13 20 26 29 30 34 38
0 0 0 0 0 0 0 0 0 0 0 0 0 0 0 0 0 0 0 0 0 0 0 0 0 0 0 0 0 0 0 0 0 0 1 3 5 9 13 16 19 21 24
0 0 0 0 0 0 0 0 0 0 0 0 0 0 0 0 0 0 0 0 0 0 0 0 0 0 0 0 0 0 0 0 0 0 0 1 1 3 4 5 6 8 10
0 0 0 0 0 0 0 0 0 0 0 0 0 0 0 0 0 0 0 0 0 0 0 0 0 0 0 0 0 0 0 0 0 0 0 0 0 0 1 1 1 2 3
0 0 0 0 0 0 0 0 0 0 0 0 0 0 0 0 0 0 0 0 0 0 0 0 0 0 0 0 0 0 0 0 0 0 0 0 0 0 0 0 0 1 1
0 0 0 0 0 0 0 0 0 0 0 0 0 0 0 0 0 0 0 0 0 0 0 0 0 0 0 0 0 0 0 0 0 0 0 0 0 0 0 0 0 0 0
0 0 0 0 0 0 0 0 0 0 0 0 0 0 0 0 0 0 0 0 0 0 0 0 0 0 0 0 0 0 0 0 0 0 0 0 0 0 0 0 0 0 0
0 0 0 0 0 0 0 0 0 0 0 0 0 0 0 0 0 0 0 0 0 0 0 0 0 0 0 0 0 0 0 0 0 0 0 0 0 0 0 0 0 0 0
0 0 0 0 0 0 0 0 0 0 0 0 0 0 0 0 0 0 0 0 0 0 0 0 0 0 0 0 0 0 0 0 0 0 0 0 0 0 0 0 0 0 0
0 0 0 0 0 0 0 0 0 0 0 0 0 0 0 0 0 0 0 0 0 0 0 0 0 0 0 0 0 0 0 0 0 0 0 0 0 0 0 0 0 0 0
0 0 0 0 0 0 0 0 0 0 0 0 0 0 0 0 0 0 0 0 0 0 0 0 0 0 0 0 0 0 0 0 0 0 0 0 0 0 0 0 0 0 0
0 0 0 0 0 0 0 0 0 0 0 0 0 0 0 0 0 0 0 0 0 0 0 0 0 0 0 0 0 0 0 0 0 0 0 0 0 0 0 0 0 0 0
0 0 0 0 0 0 0 0 0 0 0 0 0 0 0 0 0 0 0 0 0 0 0 0 0 0 0 0 0 0 0 0 0 0 0 0 0 0 0 0 0 0 0
0 0 0 0 0 0 0 0 0 0 0 0 0 0 0 0 0 0 0 0 0 0 0 0 0 0 0 0 0 0 0 0 0 0 0 0 0 0 0 0 0 0 0

GEFSMA_con_probscp_054.txt.gz
Probability
67 70 79 82 77 72 72 67 56 46 35 25 16 8 6 6 4 6 19 32 28 12 3 1 1 1 2 2 3 6 10 8 4 2 2 2 3 2 1 0 0 0 0
65 70 76 78 76 73 73 68 58 47 37 25 16 11 11 9 6 6 14 23 20 10 4 3 3 2 4 5 6 8 10 9 7 5 3 2 3 3 2 1 1 1 0
57 61 66 70 72 71 70 65 55 44 35 23 17 15 15 12 8 6 8 12 11 6 3 4 5 4 5 7 9 10 11 11 10 7 4 2 3 3 3 3 2 2 1
44 47 52 57 61 63 60 53 44 34 27 21 17 15 15 12 8 5 4 6 6 4 4 5 6 6 5 6 9 12 15 15 14 9 6 4 3 3 3 3 3 3 3
30 33 38 43 47 50 48 39 31 24 20 16 12 10 10 8 5 2 1 2 3 3 5 6 6 6 5 4 7 12 16 18 18 14 10 7 4 3 2 3 4 3 3
17 21 28 33 34 38 36 28 21 17 14 11 6 4 4 3 1 0 0 0 1 1 3 4 4 3 3 4 6 11 14 16 17 15 12 10 7 4 2 2 3 3 3
9 14 21 25 25 26 26 20 16 14 11 8 4 2 1 1 0 0 0 0 0 0 0 1 1 1 2 2 3 6 9 11 12 10 9 10 9 6 3 2 3 3 3
6 8 12 15 17 19 19 17 14 12 8 6 4 2 1 0 0 0 0 0 0 0 0 0 0 0 0 0 1 2 3 5 6 6 6 7 7 6 5 5 4 4 3
4 5 6 7 10 13 16 16 13 10 9 6 4 2 0 0 0 0 0 0 0 0 0 0 0 0 0 0 0 0 1 1 2 3 4 5 4 5 7 7 8 7 6
4 4 3 3 5 7 11 12 10 11 11 7 4 2 1 1 0 0 0 0 0 0 0 0 0 0 0 0 0 0 0 0 1 1 3 5 5 4 6 9 12 14 14
3 2 1 1 2 4 6 9 11 13 13 9 6 4 3 2 1 1 0 0 0 0 0 0 0 0 0 0 0 0 0 0 0 0 1 3 5 6 7 11 15 20 23
1 1 1 1 1 2 4 8 13 15 14 12 11 10 8 7 5 3 1 0 0 0 0 0 0 0 0 0 0 0 0 0 0 0 0 2 4 7 10 13 17 22 26
1 2 2 2 1 2 3 8 12 15 16 14 14 17 19 19 15 10 6 3 2 2 1 0 0 0 0 0 0 0 0 0 0 0 0 1 2 4 8 12 15 18 20
1 2 2 2 2 2 2 5 8 12 14 13 13 21 32 35 31 25 17 11 6 5 4 2 0 0 0 0 0 0 0 0 0 0 0 1 1 1 3 7 10 12 13
1 1 1 1 2 2 1 1 3 6 9 10 13 21 34 43 45 40 35 27 20 13 9 6 3 2 1 0 0 0 0 0 0 0 0 0 0 0 0 2 5 6 7
2 1 0 0 1 1 0 0 1 3 5 7 12 17 26 36 43 46 45 44 39 29 20 13 10 7 4 2 0 0 0 0 0 0 0 0 0 0 0 0 1 2 3
1 1 0 0 0 0 0 0 0 1 1 3 6 9 14 21 30 37 43 46 46 41 31 22 17 13 9 5 2 1 0 0 0 0 0 0 0 0 0 0 0 0 1
3 2 1 1 0 0 0 0 0 0 0 0 1 3 5 8 15 25 33 36 38 37 33 28 23 18 12 7 5 2 1 0 0 0 0 0 0 0 0 0 0 0 0
7 6 5 4 1 0 0 0 0 0 0 0 0 0 1 2 6 15 22 25 27 27 27 28 26 21 14 9 6 3 1 0 0 0 0 0 0 0 0 0 0 0 0
10 10 9 8 4 1 0 0 0 0 0 0 0 0 0 0 2 6 11 16 18 20 20 22 23 20 15 10 6 3 1 0 0 0 0 0 0 0 0 0 0 0 0
7 9 10 10 7 3 1 0 0 0 0 0 0 0 0 0 0 2 5 8 11 13 14 15 15 15 14 11 8 4 2 1 0 0 0 0 0 0 0 0 0 0 0
4 6 8 8 7 5 2 0 0 0 0 0 0 0 0 0 0 0 1 2 4 7 9 10 11 13 13 11 9 5 3 1 0 0 0 0 0 0 0 0 0 0 0
3 4 5 5 6 5 2 0 0 0 0 0 0 0 0 0 0 0 0 0 1 2 3 5 8 13 15 14 10 6 3 2 1 0 0 0 0 0 0 0 0 0 0
2 3 3 2 3 2 1 0 0 0 0 0 0 0 0 0 0 0 0 0 0 0 0 2 4 8 11 13 11 9 6 3 1 0 0 0 0 0 0 0 0 0 0
1 1 1 1 1 0 0 0 0 0 0 0 0 0 0 0 0 0 0 0 0 0 0 0 1 3 4 6 9 10 8 4 1 0 0 0 0 0 0 0 0 0 0
0 1 0 0 0 0 0 0 0 0 0 0 0 0 0 0 0 0 0 0 0 0 0 0 0 0 0 1 4 7 6 3 1 0 0 0 0 0 0 0 0 0 0

GEFSMA_con_probscp_060.txt.gz
Probability
88 87 88 86 82 81 80 76 75 75 73 65 55 53 52 42 27 23 33 45 55 61 63 53 32 16 11 8 5 3 5 5 3 1 0 0 0 0 0 0 0 0 0
86 84 84 81 77 76 75 73 70 66 62 58 52 50 51 46 38 34 39 48 52 52 53 45 31 17 10 6 4 4 4 4 2 0 0 0 0 0 0 0 0 0 0
79 78 77 74 69 68 68 65 60 52 46 43 41 39 42 45 45 43 44 48 46 40 37 34 27 19 11 4 3 4 4 3 3 2 1 0 0 0 1 1 1 0 0
71 71 70 66 62 61 58 53 46 38 33 29 26 26 29 36 40 42 42 42 38 32 28 25 21 16 10 5 3 4 4 4 5 5 4 2 0 0 1 2 1 1 1
65 64 63 61 57 52 47 38 31 28 26 22 17 15 18 25 31 32 32 32 28 25 23 20 15 9 6 4 4 4 5 5 7 7 7 4 1 0 0 1 1 1 1
56 56 58 59 53 44 35 27 23 22 20 16 9 6 8 14 20 21 19 18 16 16 18 19 15 8 3 2 3 5 5 4 5 6 6 4 1 0 0 0 0 0 1
41 43 47 50 45 34 26 21 19 16 11 7 3 1 2 6 9 9 8 8 9 9 11 17 18 12 5 2 3 4 4 3 3 4 4 3 1 0 0 0 0 0 0
26 27 34 37 33 28 23 20 16 12 7 4 2 1 1 2 3 2 2 3 4 4 5 10 14 14 9 4 2 2 2 2 2 3 3 2 1 0 0 0 0 0 0
16 17 21 25 25 26 25 22 17 12 8 5 4 5 3 3 2 1 0 1 2 2 1 2 7 11 10 5 2 1 1 1 1 1 1 1 0 0 0 0 0 0 0
11 11 12 15 18 21 22 21 19 16 10 7 8 8 6 5 4 2 1 2 4 3 1 1 4 9 9 7 5 2 1 0 0 0 0 0 0 0 0 0 0 0 0
13 10 8 8 9 11 12 15 18 17 12 9 9 10 7 6 5 4 3 3 3 3 3 2 4 7 9 8 6 2 0 0 0 0 0 0 0 0 0 0 0 0 0
16 12 9 8 6 4 5 9 12 12 11 9 9 10 10 9 9 8 6 4 3 4 5 5 6 8 9 8 4 1 0 0 0 0 0 0 0 0 0 0 0 0 0
13 12 11 9 6 3 2 4 5 6 7 7 7 9 11 13 14 13 10 6 5 7 11 12 12 12 11 9 5 1 0 0 0 0 0 0 0 0 0 0 0 0 0
8 10 12 11 9 7 6 5 4 4 5 5 4 5 9 11 12 14 15 12 8 9 14 17 19 21 20 16 7 1 0 0 0 0 0 0 0 0 0 0 0 0 0
7 9 10 11 12 13 12 10 5 3 3 2 2 4 6 8 8 11 16 17 13 11 12 19 26 31 31 20 7 2 1 0 0 0 0 0 0 0 0 0 0 0 0
9 8 7 7 11 15 15 11 6 3 2 0 1 3 5 6 7 9 14 18 18 14 12 18 28 36 33 20 8 5 4 1 0 0 0 0 0 0 0 0 0 0 0
8 7 4 4 6 10 11 9 5 3 1 0 0 1 2 4 6 7 9 14 17 17 15 17 25 32 33 23 13 9 4 0 0 0 0 0 0 0 0 0 0 0 0
6 5 3 1 2 4 6 6 4 2 1 1 0 0 0 1 3 4 6 9 13 16 16 16 20 27 30 25 18 11 4 0 0 0 0 0 0 0 0 0 0 0 0
5 3 1 1 2 3 4 4 3 2 2 2 1 0 0 0 1 3 4 6 9 12 15 16 16 18 19 19 16 11 4 1 0 0 0 0 0 0 0 0 0 0 0
2 1 1 1 2 3 2 2 2 1 2 2 1 0 0 0 0 2 3 4 5 7 10 10 9 10 11 12 11 8 4 2 1 0 0 0 0 0 0 0 0 0 0
1 0 0 1 2 1 0 0 0 1 3 3 1 0 0 0 0 0 1 1 1 3 4 3 3 6 9 10 9 6 4 3 2 0 0 0 0 0 0 0 0 0 0
1 1 0 0 0 0 0 0 0 1 2 3 1 0 0 0 0 0 0 0 0 1 1 0 1 3 6 9 9 5 4 4 3 1 0 0 0 0 0 0 0 0 0
3 2 1 0 0 0 0 0 0 0 1 2 1 0 0 0 0 0 0 0 0 0 0 0 0 1 3 6 6 3 2 4 3 1 0 0 0 0 0 0 0 0 0
4 2 1 0 0 0 0 0 0 0 0 0 0 0 0 0 0 0 0 0 0 0 0 0 0 0 1 2 2 1 1 3 2 1 0 0 0 0 0 0 0 0 0
2 1 0 0 0 0 0 0 0 0 0 0 0 0 0 0 0 0 0 0 0 0 0 0 0 0 0 0 0 1 1 1 1 0 0 0 0 0 0 0 0 0 0
1 0 0 0 0 0 0 0 0 0 0 0 0 0 0 0 0 0 0 0 0 0 0 0 0 0 0 0 0 0 1 0 0 0 0 0 0 0 0 0 0 0 0